,,Stat6,,Stat2,,Stat8,,Stat9,,Stat10,,Wind1,,Wind1,
time,status,PA1M_AVG,status,PR1M_SUM,status,RH1M_AVG,status,SR1M_AVG,status,TA1M_AVG,status,W1dAve1m,status,W1sAve1m,
2008-10-01, 00:00:00,VALID,918.526,VALID,0,VALID,100,VALID,-0.0169808,VALID,18.2866,VALID,23,VALID,0,
2008-10-01, 00:01:00,VALID,918.516,VALID,0,VALID,100,VALID,0.0169808,VALID,18.2836,VALID,15,VALID,0,
2008-10-01, 00:02:00,VALID,918.503,VALID,0,VALID,100,VALID,0,VALID,18.2908,VALID,14,VALID,0,
2008-10-01, 00:03:00,VALID,918.483,VALID,0,VALID,100,VALID,0,VALID,18.297,VALID,19,VALID,0,
2008-10-01, 00:04:00,VALID,918.488,VALID,0,VALID,100,VALID,0,VALID,18.2966,VALID,21,VALID,0,
2008-10-01, 00:05:00,VALID,918.485,VALID,0,VALID,100,VALID,0.0169808,VALID,18.2868,VALID,19,VALID,0,
2008-10-01, 00:06:00,VALID,918.465,VALID,0,VALID,100,VALID,0.0339617,VALID,18.2836,VALID,10,VALID,0,
2008-10-01, 00:07:00,VALID,918.458,VALID,0,VALID,100,VALID,0.0169808,VALID,18.2771,VALID,26,VALID,0,
2008-10-01, 00:08:00,VALID,918.441,VALID,0,VALID,100,VALID,0.0339617,VALID,18.2801,VALID,26,VALID,0,
2008-10-01, 00:09:00,VALID,918.428,VALID,0,VALID,100,VALID,0.0169808,VALID,18.2771,VALID,21,VALID,0.578819,
2008-10-01, 00:10:00,VALID,918.415,VALID,0,VALID,100,VALID,0.0509425,VALID,18.2866,VALID,23,VALID,0.0257241,
2008-10-01, 00:11:00,VALID,918.411,VALID,0,VALID,100,VALID,0,VALID,18.3063,VALID,23,VALID,0,
2008-10-01, 00:12:00,VALID,918.399,VALID,0,VALID,100,VALID,0.0339617,VALID,18.3058,VALID,345,VALID,0.448686,
2008-10-01, 00:13:00,VALID,918.386,VALID,0,VALID,100,VALID,0.0339617,VALID,18.3095,VALID,353,VALID,0,
2008-10-01, 00:14:00,VALID,918.37,VALID,0,VALID,100,VALID,0.0169808,VALID,18.3255,VALID,21,VALID,0.358696,
2008-10-01, 00:15:00,VALID,918.361,VALID,0,VALID,100,VALID,0.0679233,VALID,18.3417,VALID,21,VALID,0.510603,
2008-10-01, 00:16:00,VALID,918.339,VALID,0,VALID,100,VALID,0.0849042,VALID,18.338,VALID,17,VALID,0.452785,
2008-10-01, 00:17:00,VALID,918.334,VALID,0,VALID,100,VALID,0.0169808,VALID,18.3223,VALID,14,VALID,1.15252,
2008-10-01, 00:18:00,VALID,918.322,VALID,0,VALID,100,VALID,0.0509425,VALID,18.3188,VALID,27,VALID,0.635121,
2008-10-01, 00:19:00,VALID,918.318,VALID,0,VALID,100,VALID,-0.0339617,VALID,18.3297,VALID,12,VALID,0,
2008-10-01, 00:20:00,VALID,918.309,VALID,0,VALID,100,VALID,-0.0849042,VALID,18.3204,VALID,11,VALID,0,
2008-10-01, 00:21:00,VALID,918.307,VALID,0,VALID,100,VALID,-0.101885,VALID,18.3174,VALID,20,VALID,0,
2008-10-01, 00:22:00,VALID,918.291,VALID,0,VALID,100,VALID,-0.101885,VALID,18.3107,VALID,18,VALID,0.102289,
2008-10-01, 00:23:00,VALID,918.295,VALID,0,VALID,100,VALID,-0.0849042,VALID,18.3012,VALID,358,VALID,0.853299,
2008-10-01, 00:24:00,VALID,918.269,VALID,0,VALID,100,VALID,-0.0679233,VALID,18.2947,VALID,342,VALID,0.609933,
2008-10-01, 00:25:00,VALID,918.237,VALID,0,VALID,100,VALID,-0.0849042,VALID,18.2975,VALID,353,VALID,0.303961,
2008-10-01, 00:26:00,VALID,918.215,VALID,0,VALID,100,VALID,-0.0509425,VALID,18.301,VALID,360,VALID,0.819931,
2008-10-01, 00:27:00,VALID,918.193,VALID,0,VALID,100,VALID,-0.101885,VALID,18.2882,VALID,4,VALID,0.588796,
2008-10-01, 00:28:00,VALID,918.171,VALID,0,VALID,100,VALID,-0.101885,VALID,18.2785,VALID,2,VALID,0.205469,
2008-10-01, 00:29:00,VALID,918.158,VALID,0,VALID,100,VALID,-0.0849042,VALID,18.2783,VALID,358,VALID,0.365184,
2008-10-01, 00:30:00,VALID,918.138,VALID,0,VALID,100,VALID,-0.101885,VALID,18.2817,VALID,8,VALID,0.596354,
2008-10-01, 00:31:00,VALID,918.126,VALID,0,VALID,100,VALID,-0.0509425,VALID,18.272,VALID,15,VALID,0.134943,
2008-10-01, 00:32:00,VALID,918.118,VALID,0,VALID,100,VALID,-0.0679233,VALID,18.2685,VALID,7,VALID,0,
2008-10-01, 00:33:00,VALID,918.098,VALID,0,VALID,100,VALID,-0.101885,VALID,18.2715,VALID,344,VALID,0,
2008-10-01, 00:34:00,VALID,918.09,VALID,0,VALID,100,VALID,-0.0849042,VALID,18.2752,VALID,348,VALID,0,
2008-10-01, 00:35:00,VALID,918.08,VALID,0.2,VALID,100,VALID,-0.0679233,VALID,18.2655,VALID,351,VALID,0.528232,
2008-10-01, 00:36:00,VALID,918.061,VALID,0,VALID,100,VALID,-0.0849042,VALID,18.2461,VALID,7,VALID,0.00508721,
2008-10-01, 00:37:00,VALID,918.066,VALID,0,VALID,100,VALID,-0.118866,VALID,18.2266,VALID,8,VALID,0.171875,
2008-10-01, 00:38:00,VALID,918.058,VALID,0,VALID,100,VALID,-0.0849042,VALID,18.2495,VALID,358,VALID,0.886328,
2008-10-01, 00:39:00,VALID,918.055,VALID,0,VALID,100,VALID,-0.0849042,VALID,18.2391,VALID,358,VALID,0.551054,
2008-10-01, 00:40:00,VALID,918.038,VALID,0,VALID,100,VALID,-0.0679233,VALID,18.2623,VALID,347,VALID,0,
2008-10-01, 00:41:00,VALID,918.022,VALID,0,VALID,100,VALID,-0.0509425,VALID,18.2655,VALID,307,VALID,0,
2008-10-01, 00:42:00,VALID,918.014,VALID,0,VALID,100,VALID,-0.0849042,VALID,18.2718,VALID,307,VALID,0,
2008-10-01, 00:43:00,VALID,918.003,VALID,0,VALID,100,VALID,-0.101885,VALID,18.2915,VALID,307,VALID,0,
2008-10-01, 00:44:00,VALID,917.98,VALID,0,VALID,100,VALID,-0.0679233,VALID,18.275,VALID,324,VALID,0.2742,
2008-10-01, 00:45:00,VALID,917.975,VALID,0,VALID,100,VALID,-0.101885,VALID,18.2593,VALID,357,VALID,0.0470703,
2008-10-01, 00:46:00,VALID,917.964,VALID,0,VALID,100,VALID,-0.101885,VALID,18.2588,VALID,340,VALID,0,
2008-10-01, 00:47:00,VALID,917.967,VALID,0,VALID,100,VALID,-0.0849042,VALID,18.259,INVALID,360,VALID,0,
2008-10-01, 00:48:00,VALID,917.947,VALID,0,VALID,100,VALID,-0.0849042,VALID,18.259,INVALID,360,VALID,0,
2008-10-01, 00:49:00,VALID,917.935,VALID,0,VALID,100,VALID,-0.0849042,VALID,18.285,VALID,332,VALID,0,
2008-10-01, 00:50:00,VALID,917.933,VALID,0,VALID,100,VALID,-0.101885,VALID,18.2979,INVALID,360,VALID,0,
2008-10-01, 00:51:00,VALID,917.917,VALID,0,VALID,100,VALID,-0.101885,VALID,18.3014,VALID,319,VALID,0,
2008-10-01, 00:52:00,VALID,917.907,VALID,0,VALID,100,VALID,-0.0849042,VALID,18.3044,VALID,319,VALID,0,
2008-10-01, 00:53:00,VALID,917.885,VALID,0,VALID,100,VALID,-0.0509425,VALID,18.2979,VALID,321,VALID,0,
2008-10-01, 00:54:00,VALID,917.865,VALID,0,VALID,100,VALID,-0.0849042,VALID,18.2917,VALID,26,VALID,0.0751488,
2008-10-01, 00:55:00,VALID,917.852,VALID,0,VALID,100,VALID,-0.101885,VALID,18.2787,VALID,25,VALID,0.869318,
2008-10-01, 00:56:00,VALID,917.835,VALID,0,VALID,100,VALID,-0.0679233,VALID,18.2586,VALID,21,VALID,0.60774,
2008-10-01, 00:57:00,VALID,917.838,VALID,0,VALID,100,VALID,-0.101885,VALID,18.2588,VALID,25,VALID,0,
2008-10-01, 00:58:00,VALID,917.811,VALID,0,VALID,100,VALID,-0.101885,VALID,18.2528,VALID,22,VALID,0,
2008-10-01, 00:59:00,VALID,917.792,VALID,0,VALID,100,VALID,-0.101885,VALID,18.2688,VALID,22,VALID,0,
2008-10-01, 01:00:00,VALID,917.783,VALID,0,VALID,100,VALID,-0.101885,VALID,18.2688,VALID,22,VALID,0,
2008-10-01, 01:01:00,VALID,917.773,VALID,0,VALID,100,VALID,-0.118866,VALID,18.2556,VALID,22,VALID,0,
2008-10-01, 01:02:00,VALID,917.772,VALID,0,VALID,100,VALID,-0.101885,VALID,18.2428,VALID,22,VALID,0,
2008-10-01, 01:03:00,VALID,917.751,VALID,0,VALID,100,VALID,-0.0849042,VALID,18.2396,VALID,22,VALID,0,
2008-10-01, 01:04:00,VALID,917.744,VALID,0,VALID,100,VALID,-0.0339617,VALID,18.2389,VALID,22,VALID,0,
2008-10-01, 01:05:00,VALID,917.735,VALID,0,VALID,100,VALID,0,VALID,18.238,VALID,30,VALID,0,
2008-10-01, 01:06:00,VALID,917.729,VALID,0,VALID,100,VALID,-0.0509425,VALID,18.2447,VALID,31,VALID,0,
2008-10-01, 01:07:00,VALID,917.734,VALID,0,VALID,100,VALID,-0.0339617,VALID,18.2447,VALID,18,VALID,0,
2008-10-01, 01:08:00,VALID,917.742,VALID,0,VALID,100,VALID,-0.0169808,VALID,18.2546,VALID,282,VALID,0,
2008-10-01, 01:09:00,VALID,917.736,VALID,0,VALID,100,VALID,-0.0509425,VALID,18.2581,VALID,274,VALID,0,
2008-10-01, 01:10:00,VALID,917.733,VALID,0,VALID,100,VALID,-0.0169808,VALID,18.2581,VALID,274,VALID,0,
2008-10-01, 01:11:00,VALID,917.731,VALID,0,VALID,100,VALID,-0.0169808,VALID,18.2414,VALID,286,VALID,0,
2008-10-01, 01:12:00,VALID,917.72,VALID,0,VALID,100,VALID,-0.0169808,VALID,18.2417,VALID,301,VALID,0,
2008-10-01, 01:13:00,VALID,917.704,VALID,0,VALID,100,VALID,-0.0169808,VALID,18.2706,VALID,301,VALID,0,
2008-10-01, 01:14:00,VALID,917.684,VALID,0,VALID,100,VALID,-0.0509425,VALID,18.2646,VALID,301,VALID,0,
2008-10-01, 01:15:00,VALID,917.681,VALID,0,VALID,100,VALID,-0.0169808,VALID,18.2674,VALID,301,VALID,0,
2008-10-01, 01:16:00,VALID,917.657,VALID,0,VALID,100,VALID,-0.0169808,VALID,18.2868,VALID,343,VALID,0,
2008-10-01, 01:17:00,VALID,917.648,VALID,0,VALID,100,VALID,-0.0339617,VALID,18.2938,VALID,358,VALID,0,
2008-10-01, 01:18:00,VALID,917.643,VALID,0,VALID,100,VALID,-0.0339617,VALID,18.2966,VALID,358,VALID,0,
2008-10-01, 01:19:00,VALID,917.624,VALID,0,VALID,100,VALID,-0.0339617,VALID,18.2868,VALID,358,VALID,0,
2008-10-01, 01:20:00,VALID,917.615,VALID,0,VALID,100,VALID,-0.0169808,VALID,18.2741,VALID,358,VALID,0,
2008-10-01, 01:21:00,VALID,917.585,VALID,0,VALID,100,VALID,-0.0339617,VALID,18.2546,VALID,358,VALID,0,
2008-10-01, 01:22:00,VALID,917.58,VALID,0,VALID,100,VALID,0,VALID,18.2417,VALID,358,VALID,0,
2008-10-01, 01:23:00,VALID,917.576,VALID,0,VALID,100,VALID,-0.0169808,VALID,18.2382,VALID,358,VALID,0,
2008-10-01, 01:24:00,VALID,917.55,VALID,0,VALID,100,VALID,-0.0169808,VALID,18.2252,VALID,358,VALID,0,
2008-10-01, 01:25:00,VALID,917.541,VALID,0,VALID,100,VALID,0,VALID,18.2291,VALID,358,VALID,0,
2008-10-01, 01:26:00,VALID,917.531,VALID,0,VALID,100,VALID,-0.0169808,VALID,18.2285,VALID,358,VALID,0,
2008-10-01, 01:27:00,VALID,917.532,VALID,0,VALID,100,VALID,0,VALID,18.2285,VALID,358,VALID,0,
2008-10-01, 01:28:00,VALID,917.51,VALID,0,VALID,100,VALID,-0.0339617,VALID,18.2382,VALID,358,VALID,0,
2008-10-01, 01:29:00,VALID,917.518,VALID,0,VALID,100,VALID,0,VALID,18.2384,VALID,358,VALID,0,
2008-10-01, 01:30:00,VALID,917.517,VALID,0,VALID,100,VALID,0,VALID,18.2512,VALID,358,VALID,0,
2008-10-01, 01:31:00,VALID,917.499,VALID,0,VALID,100,VALID,0,VALID,18.2512,VALID,358,VALID,0,
2008-10-01, 01:32:00,VALID,917.499,VALID,0,VALID,100,VALID,0,VALID,18.2512,VALID,358,VALID,0,
2008-10-01, 01:33:00,VALID,917.492,VALID,0,VALID,100,VALID,0,VALID,18.2574,VALID,9,VALID,0.171535,
2008-10-01, 01:34:00,VALID,917.467,VALID,0,VALID,100,VALID,0,VALID,18.2544,VALID,23,VALID,0.630273,
2008-10-01, 01:35:00,VALID,917.469,VALID,0,VALID,100,VALID,0.0339617,VALID,18.2739,VALID,26,VALID,0.323552,
2008-10-01, 01:36:00,VALID,917.459,VALID,0,VALID,100,VALID,-0.0339617,VALID,18.303,VALID,26,VALID,0.161222,
2008-10-01, 01:37:00,VALID,917.455,VALID,0,VALID,100,VALID,-0.0169808,VALID,18.3098,VALID,26,VALID,0.0428779,
2008-10-01, 01:38:01,VALID,917.456,VALID,0,VALID,100,VALID,0,VALID,18.3095,VALID,26,VALID,0,
2008-10-01, 01:39:00,VALID,917.428,VALID,0,VALID,100,VALID,-0.0169808,VALID,18.313,VALID,26,VALID,0,
2008-10-01, 01:40:01,VALID,917.422,VALID,0,VALID,100,VALID,0.0169808,VALID,18.3095,VALID,26,VALID,0,
2008-10-01, 01:41:00,VALID,917.4,VALID,0,VALID,100,VALID,-0.0339617,VALID,18.313,VALID,26,VALID,0,
2008-10-01, 01:42:00,VALID,917.4,VALID,0,VALID,100,VALID,-0.0169808,VALID,18.3162,VALID,26,VALID,0,
2008-10-01, 01:43:00,VALID,917.381,VALID,0,VALID,100,VALID,0,VALID,18.3063,VALID,26,VALID,0,
2008-10-01, 01:44:00,VALID,917.362,VALID,0,VALID,100,VALID,-0.0169808,VALID,18.3128,VALID,26,VALID,0,
2008-10-01, 01:45:01,VALID,917.34,VALID,0.2,VALID,100,VALID,0,VALID,18.3225,VALID,23,VALID,0,
2008-10-01, 01:46:00,VALID,917.31,VALID,0,VALID,100,VALID,0,VALID,18.3292,VALID,24,VALID,0.41276,
2008-10-01, 01:47:00,VALID,917.303,VALID,0,VALID,100,VALID,-0.0339617,VALID,18.326,VALID,26,VALID,0.906055,
2008-10-01, 01:48:00,VALID,917.288,VALID,0,VALID,100,VALID,0,VALID,18.3357,VALID,20,VALID,0.204033,
2008-10-01, 01:49:00,VALID,917.289,VALID,0,VALID,100,VALID,-0.0509425,VALID,18.3264,VALID,343,VALID,0,
2008-10-01, 01:50:00,VALID,917.265,VALID,0,VALID,100,VALID,-0.0509425,VALID,18.323,VALID,318,VALID,0,
2008-10-01, 01:51:01,VALID,917.27,VALID,0,VALID,100,VALID,-0.0169808,VALID,18.326,VALID,317,VALID,0,
2008-10-01, 01:52:01,VALID,917.255,VALID,0,VALID,100,VALID,0,VALID,18.3223,VALID,317,VALID,0,
2008-10-01, 01:53:01,VALID,917.237,VALID,0,VALID,100,VALID,-0.0169808,VALID,18.3257,VALID,319,VALID,0,
2008-10-01, 01:54:00,VALID,917.225,VALID,0,VALID,100,VALID,-0.0339617,VALID,18.3227,VALID,20,VALID,0,
2008-10-01, 01:55:00,VALID,917.215,VALID,0,VALID,100,VALID,0,VALID,18.2933,VALID,22,VALID,0,
2008-10-01, 01:56:00,VALID,917.209,VALID,0,VALID,100,VALID,-0.0169808,VALID,18.2773,VALID,358,VALID,0,
2008-10-01, 01:57:01,VALID,917.2,VALID,0,VALID,100,VALID,-0.0339617,VALID,18.2711,VALID,335,VALID,0,
2008-10-01, 01:58:00,VALID,917.192,VALID,0,VALID,100,VALID,0,VALID,18.2646,VALID,3,VALID,0.126143,
2008-10-01, 01:59:01,VALID,917.16,VALID,0,VALID,100,VALID,-0.0339617,VALID,18.2611,VALID,11,VALID,1.11955,
2008-10-01, 02:00:00,VALID,917.152,VALID,0,VALID,100,VALID,-0.0339617,VALID,18.2741,VALID,6,VALID,0.938772,
2008-10-01, 02:01:01,VALID,917.147,VALID,0,VALID,100,VALID,-0.0169808,VALID,18.2711,VALID,3,VALID,0.321948,
2008-10-01, 02:02:00,VALID,917.128,VALID,0,VALID,100,VALID,0,VALID,18.2581,VALID,358,VALID,0,
2008-10-01, 02:03:00,VALID,917.135,VALID,0,VALID,100,VALID,-0.0169808,VALID,18.2581,VALID,351,VALID,0.123047,
2008-10-01, 02:04:01,VALID,917.119,VALID,0,VALID,100,VALID,-0.0339617,VALID,18.238,VALID,341,VALID,0,
2008-10-01, 02:05:00,VALID,917.102,VALID,0,VALID,100,VALID,0.0339617,VALID,18.2252,VALID,326,VALID,0,
2008-10-01, 02:06:00,VALID,917.099,VALID,0,VALID,100,VALID,0.0169808,VALID,18.2053,VALID,326,VALID,0,
2008-10-01, 02:07:00,VALID,917.093,VALID,0,VALID,100,VALID,-0.0169808,VALID,18.196,VALID,326,VALID,0,
2008-10-01, 02:08:00,VALID,917.085,VALID,0,VALID,100,VALID,0,VALID,18.1791,VALID,8,VALID,0,
2008-10-01, 02:09:00,VALID,917.069,VALID,0,VALID,100,VALID,0.0169808,VALID,18.1731,VALID,17,VALID,0,
2008-10-01, 02:10:00,VALID,917.067,VALID,0,VALID,100,VALID,0.0169808,VALID,18.1699,VALID,17,VALID,0,
2008-10-01, 02:11:00,VALID,917.067,VALID,0,VALID,100,VALID,0,VALID,18.1534,VALID,13,VALID,0.186612,
2008-10-01, 02:12:00,VALID,917.057,VALID,0,VALID,100,VALID,0.0169808,VALID,18.1731,VALID,16,VALID,0,
2008-10-01, 02:13:00,VALID,917.042,VALID,0,VALID,100,VALID,0.0169808,VALID,18.1726,VALID,28,VALID,0.797256,
2008-10-01, 02:14:01,VALID,917.025,VALID,0,VALID,100,VALID,0.0339617,VALID,18.1794,VALID,22,VALID,0.365972,
2008-10-01, 02:15:00,VALID,917.005,VALID,0,VALID,100,VALID,0.0509425,VALID,18.1662,VALID,13,VALID,1.24201,
2008-10-01, 02:16:00,VALID,916.995,VALID,0,VALID,100,VALID,-0.0169808,VALID,18.1759,VALID,10,VALID,1.03961,
2008-10-01, 02:17:01,VALID,916.983,VALID,0,VALID,100,VALID,0.0339617,VALID,18.1893,VALID,3,VALID,0.870236,
2008-10-01, 02:18:00,VALID,916.984,VALID,0,VALID,100,VALID,0.0169808,VALID,18.196,VALID,14,VALID,1.01634,
2008-10-01, 02:19:00,VALID,917.005,VALID,0,VALID,100,VALID,-0.0169808,VALID,18.2062,VALID,360,VALID,0.0504808,
2008-10-01, 02:20:00,VALID,916.967,VALID,0,VALID,100,VALID,-0.0509425,VALID,18.2129,VALID,20,VALID,0.609561,
2008-10-01, 02:21:00,VALID,916.942,VALID,0,VALID,100,VALID,-0.118866,VALID,18.2199,VALID,21,VALID,1.0585,
2008-10-01, 02:22:01,VALID,916.955,VALID,0,VALID,100,VALID,-0.0679233,VALID,18.2097,VALID,11,VALID,0.55785,
2008-10-01, 02:23:01,VALID,916.952,VALID,0,VALID,100,VALID,-0.0849042,VALID,18.1937,VALID,345,VALID,0.6492,
2008-10-01, 02:24:01,VALID,916.95,VALID,0,VALID,100,VALID,-0.118866,VALID,18.1972,VALID,2,VALID,0.0261009,
2008-10-01, 02:25:00,VALID,916.929,VALID,0,VALID,100,VALID,-0.101885,VALID,18.1937,VALID,2,VALID,0,
2008-10-01, 02:26:01,VALID,916.914,VALID,0,VALID,100,VALID,-0.101885,VALID,18.1877,VALID,2,VALID,0,
2008-10-01, 02:27:00,VALID,916.914,VALID,0,VALID,100,VALID,-0.101885,VALID,18.1812,VALID,357,VALID,0,
2008-10-01, 02:28:00,VALID,916.899,VALID,0,VALID,100,VALID,-0.101885,VALID,18.1617,VALID,1,VALID,0.535792,
2008-10-01, 02:29:01,VALID,916.907,VALID,0,VALID,100,VALID,-0.101885,VALID,18.1481,VALID,12,VALID,0.293423,
2008-10-01, 02:30:01,VALID,916.903,VALID,0,VALID,100,VALID,-0.0849042,VALID,18.1481,VALID,26,VALID,0.320871,
2008-10-01, 02:31:00,VALID,916.868,VALID,0,VALID,100,VALID,-0.0849042,VALID,18.1548,VALID,23,VALID,0,
2008-10-01, 02:32:01,VALID,916.862,VALID,0,VALID,100,VALID,-0.101885,VALID,18.1515,VALID,25,VALID,0,
2008-10-01, 02:33:01,VALID,916.858,VALID,0,VALID,100,VALID,-0.101885,VALID,18.1418,VALID,7,VALID,0,
2008-10-01, 02:34:01,VALID,916.863,VALID,0,VALID,100,VALID,-0.101885,VALID,18.1388,VALID,360,VALID,0,
2008-10-01, 02:35:01,VALID,916.843,VALID,0,VALID,100,VALID,-0.0849042,VALID,18.1254,VALID,4,VALID,0,
2008-10-01, 02:36:01,VALID,916.835,VALID,0,VALID,100,VALID,-0.0849042,VALID,18.1161,VALID,19,VALID,0.216264,
2008-10-01, 02:37:01,VALID,916.824,VALID,0,VALID,100,VALID,-0.101885,VALID,18.1293,VALID,23,VALID,0.857515,
2008-10-01, 02:38:01,VALID,916.807,VALID,0,VALID,100,VALID,-0.0849042,VALID,18.1325,VALID,1,VALID,0.910792,
2008-10-01, 02:39:00,VALID,916.801,VALID,0,VALID,100,VALID,-0.0509425,VALID,18.1254,VALID,9,VALID,1.04403,
2008-10-01, 02:40:00,VALID,916.798,VALID,0,VALID,100,VALID,-0.0849042,VALID,18.1221,VALID,5,VALID,1.16406,
2008-10-01, 02:41:00,VALID,916.774,VALID,0,VALID,100,VALID,-0.0849042,VALID,18.1349,VALID,26,VALID,1.24019,
2008-10-01, 02:42:00,VALID,916.76,VALID,0,VALID,100,VALID,-0.101885,VALID,18.1583,VALID,16,VALID,0.887173,
2008-10-01, 02:43:00,VALID,916.771,VALID,0,VALID,100,VALID,-0.0679233,VALID,18.1645,VALID,349,VALID,1.28835,
2008-10-01, 02:44:00,VALID,916.768,VALID,0,VALID,100,VALID,-0.101885,VALID,18.1712,VALID,346,VALID,0.852095,
2008-10-01, 02:45:00,VALID,916.773,VALID,0,VALID,100,VALID,-0.101885,VALID,18.1937,VALID,340,VALID,0.0585069,
2008-10-01, 02:46:00,VALID,916.779,VALID,0,VALID,100,VALID,-0.0849042,VALID,18.187,VALID,13,VALID,0.735937,
2008-10-01, 02:47:00,VALID,916.771,VALID,0,VALID,100,VALID,-0.0849042,VALID,18.1935,VALID,11,VALID,1.14367,
2008-10-01, 02:48:00,VALID,916.757,VALID,0,VALID,100,VALID,-0.101885,VALID,18.2041,VALID,19,VALID,1.80449,
2008-10-01, 02:49:00,VALID,916.731,VALID,0,VALID,100,VALID,-0.0339617,VALID,18.2192,VALID,22,VALID,2.45617,
2008-10-01, 02:50:00,VALID,916.738,VALID,0,VALID,100,VALID,-0.0169808,VALID,18.2669,VALID,18,VALID,2.09737,
2008-10-01, 02:51:00,VALID,916.758,VALID,0,VALID,100,VALID,0.0339617,VALID,18.3223,VALID,3,VALID,1.91292,
2008-10-01, 02:52:00,VALID,916.757,VALID,0,VALID,100,VALID,0,VALID,18.3447,VALID,11,VALID,1.94667,
2008-10-01, 02:53:00,VALID,916.769,VALID,0,VALID,100,VALID,0,VALID,18.3739,VALID,28,VALID,1.14788,
2008-10-01, 02:54:00,VALID,916.768,VALID,0,VALID,100,VALID,0.0169808,VALID,18.3769,VALID,19,VALID,0.937881,
2008-10-01, 02:55:00,VALID,916.776,VALID,0,VALID,100,VALID,0,VALID,18.3776,VALID,23,VALID,1.12062,
2008-10-01, 02:56:00,VALID,916.781,VALID,0,VALID,100,VALID,0.0169808,VALID,18.3806,VALID,24,VALID,1.36078,
2008-10-01, 02:57:00,VALID,916.778,VALID,0,VALID,100,VALID,0,VALID,18.361,VALID,16,VALID,1.58854,
2008-10-01, 02:58:00,VALID,916.771,VALID,0,VALID,100,VALID,0.0169808,VALID,18.3579,VALID,5,VALID,1.58114,
2008-10-01, 02:59:00,VALID,916.79,VALID,0,VALID,100,VALID,0,VALID,18.3549,VALID,13,VALID,1.3125,
2008-10-01, 03:00:00,VALID,916.794,VALID,0,VALID,100,VALID,0.0169808,VALID,18.3582,VALID,20,VALID,1.54688,
2008-10-01, 03:01:00,VALID,916.788,VALID,0,VALID,100,VALID,0,VALID,18.3579,VALID,19,VALID,1.81978,
2008-10-01, 03:02:00,VALID,916.79,VALID,0,VALID,100,VALID,0.0169808,VALID,18.3612,VALID,17,VALID,1.30832,
2008-10-01, 03:03:00,VALID,916.799,VALID,0,VALID,100,VALID,0,VALID,18.3677,VALID,13,VALID,1.54528,
2008-10-01, 03:04:00,VALID,916.793,VALID,0,VALID,100,VALID,-0.0169808,VALID,18.3679,VALID,13,VALID,1.52699,
2008-10-01, 03:05:00,VALID,916.775,VALID,0,VALID,100,VALID,-0.0339617,VALID,18.3549,VALID,9,VALID,1.78757,
2008-10-01, 03:06:00,VALID,916.759,VALID,0,VALID,100,VALID,0,VALID,18.345,VALID,19,VALID,2.20367,
2008-10-01, 03:07:00,VALID,916.758,VALID,0,VALID,100,VALID,-0.0169808,VALID,18.3647,VALID,23,VALID,2.07496,
2008-10-01, 03:08:00,VALID,916.771,VALID,0,VALID,100,VALID,-0.0509425,VALID,18.3744,VALID,23,VALID,1.63938,
2008-10-01, 03:09:00,VALID,916.761,VALID,0,VALID,100,VALID,-0.0339617,VALID,18.3878,VALID,25,VALID,2.15812,
2008-10-01, 03:10:00,VALID,916.773,VALID,0,VALID,100,VALID,-0.0169808,VALID,18.4073,VALID,14,VALID,1.24883,
2008-10-01, 03:11:00,VALID,916.762,VALID,0,VALID,100,VALID,0,VALID,18.4071,VALID,1,VALID,1.39806,
2008-10-01, 03:12:00,VALID,916.772,VALID,0,VALID,100,VALID,-0.0339617,VALID,18.4105,VALID,15,VALID,0.924237,
2008-10-01, 03:13:00,VALID,916.744,VALID,0,VALID,100,VALID,0,VALID,18.4036,VALID,21,VALID,1.47734,
2008-10-01, 03:14:00,VALID,916.737,VALID,0,VALID,100,VALID,0,VALID,18.4068,VALID,19,VALID,2.11384,
2008-10-01, 03:15:00,VALID,916.723,VALID,0,VALID,100,VALID,-0.0169808,VALID,18.4066,VALID,11,VALID,2.10156,
2008-10-01, 03:16:00,VALID,916.717,VALID,0,VALID,100,VALID,-0.0169808,VALID,18.4233,VALID,22,VALID,2.01871,
2008-10-01, 03:17:00,VALID,916.724,VALID,0,VALID,100,VALID,0,VALID,18.436,VALID,342,VALID,0.618641,
2008-10-01, 03:18:00,VALID,916.717,VALID,0,VALID,100,VALID,0,VALID,18.4455,VALID,360,VALID,0.60992,
2008-10-01, 03:19:00,VALID,916.684,VALID,0,VALID,100,VALID,0.0169808,VALID,18.449,VALID,21,VALID,2.106,
2008-10-01, 03:20:00,VALID,916.716,VALID,0,VALID,100,VALID,0,VALID,18.4423,VALID,12,VALID,1.32118,
2008-10-01, 03:21:00,VALID,916.694,VALID,0,VALID,100,VALID,0,VALID,18.4291,VALID,6,VALID,2.05134,
2008-10-01, 03:22:00,VALID,916.696,VALID,0,VALID,100,VALID,0.0339617,VALID,18.4455,VALID,12,VALID,1.84551,
2008-10-01, 03:23:00,VALID,916.709,VALID,0,VALID,100,VALID,-0.0169808,VALID,18.4487,VALID,19,VALID,1.26772,
2008-10-01, 03:24:00,VALID,916.708,VALID,0,VALID,100,VALID,0.0169808,VALID,18.4552,VALID,20,VALID,0.7996,
2008-10-01, 03:25:00,VALID,916.697,VALID,0,VALID,100,VALID,0.0169808,VALID,18.4589,VALID,17,VALID,1.44141,
2008-10-01, 03:26:00,VALID,916.687,VALID,0,VALID,100,VALID,-0.0169808,VALID,18.439,VALID,13,VALID,1.95703,
2008-10-01, 03:27:00,VALID,916.691,VALID,0,VALID,100,VALID,0,VALID,18.446,VALID,22,VALID,1.37619,
2008-10-01, 03:28:00,VALID,916.679,VALID,0,VALID,100,VALID,0.0169808,VALID,18.436,VALID,18,VALID,1.56159,
2008-10-01, 03:29:00,VALID,916.685,VALID,0,VALID,100,VALID,0,VALID,18.4196,VALID,17,VALID,1.82431,
2008-10-01, 03:30:00,VALID,916.708,VALID,0,VALID,100,VALID,-0.0339617,VALID,18.4235,VALID,14,VALID,1.0918,
2008-10-01, 03:31:00,VALID,916.69,VALID,0,VALID,100,VALID,-0.0509425,VALID,18.4165,VALID,18,VALID,1.33648,
2008-10-01, 03:32:00,VALID,916.666,VALID,0,VALID,100,VALID,0,VALID,18.4068,VALID,4,VALID,1.82187,
2008-10-01, 03:33:00,VALID,916.649,VALID,0,VALID,100,VALID,0.0169808,VALID,18.3971,VALID,13,VALID,2.02544,
2008-10-01, 03:34:00,VALID,916.635,VALID,0,VALID,100,VALID,-0.101885,VALID,18.4015,VALID,15,VALID,2.2641,
2008-10-01, 03:35:00,VALID,916.65,VALID,0,VALID,100,VALID,-0.101885,VALID,18.3985,VALID,25,VALID,1.72621,
2008-10-01, 03:36:00,VALID,916.66,VALID,0,VALID,100,VALID,-0.118866,VALID,18.4052,VALID,6,VALID,1.10156,
2008-10-01, 03:37:00,VALID,916.669,VALID,0,VALID,100,VALID,-0.135847,VALID,18.4115,VALID,358,VALID,0.764509,
2008-10-01, 03:38:00,VALID,916.661,VALID,0,VALID,100,VALID,-0.101885,VALID,18.4149,VALID,20,VALID,0.944949,
2008-10-01, 03:39:00,VALID,916.661,VALID,0,VALID,100,VALID,-0.118866,VALID,18.402,VALID,8,VALID,1.31917,
2008-10-01, 03:40:00,VALID,916.639,VALID,0,VALID,100,VALID,-0.101885,VALID,18.4082,VALID,16,VALID,2.10313,
2008-10-01, 03:41:00,VALID,916.654,VALID,0,VALID,100,VALID,-0.135847,VALID,18.4117,VALID,21,VALID,2.14382,
2008-10-01, 03:42:00,VALID,916.658,VALID,0,VALID,100,VALID,-0.169808,VALID,18.4212,VALID,9,VALID,1.93981,
2008-10-01, 03:43:00,VALID,916.665,VALID,0,VALID,100,VALID,-0.152827,VALID,18.4346,VALID,16,VALID,1.27077,
2008-10-01, 03:44:00,VALID,916.65,VALID,0,VALID,100,VALID,-0.135847,VALID,18.4277,VALID,29,VALID,1.73177,
2008-10-01, 03:45:00,VALID,916.659,VALID,0,VALID,100,VALID,-0.135847,VALID,18.4314,VALID,23,VALID,1.43164,
2008-10-01, 03:46:00,VALID,916.662,VALID,0,VALID,100,VALID,-0.135847,VALID,18.4217,VALID,358,VALID,1.81072,